Miscellaneous Local Product
Issued by NWS Hastings, NE

Home | Current Version | Previous Version | Text Only | Print | Product List | Glossary Off
Versions: 1 2 3 4 5 6 7 8 9 10 11 12 13 14 15 16 17 18 19 20 21 22 23 24 25 26 27 28 29 30 31 32 33 34 35 36 37 38 39 40 41 42 43 44 45 46 47 48 49 50

000
AXUS43 KGID 262202
MISGRI

GID CWA HOURLY WEATHER ROUNDUP
NATIONAL WEATHER SERVICE HASTINGS NE
400 PM CST MON JAN 26 2015

NOTE: "FAIR" INDICATES FEW OR NO CLOUDS BELOW 12,000 FEET WITH NO
SIGNIFICANT WEATHER AND/OR OBSTRUCTIONS TO VISIBILITY.

...SOUTH CENTRAL NEBRASKA...

CITY           SKY/WX    TMP DP  RH WIND       PRES   REMARKS
GRAND ISLAND   SUNNY     62  34  35 N15       30.00R
HASTINGS       SUNNY     64  31  28 N18       30.00S
KEARNEY        SUNNY     66  32  28 NW17G23   30.01R
ORD            SUNNY     61  33  35 N15       29.99R
YORK           SUNNY     63  32  31 N14G21    29.98R
AURORA         SUNNY     63  33  32 NW13G21   29.99S
LEXINGTON      SUNNY     68  32  26 NW23      30.03R
HOLDREGE       SUNNY     67  29  24 NW20G25   30.02R
HEBRON         SUNNY     65  23  20 NW15G21   29.99R

...NEBRASKA PANHANDLE...

CITY           SKY/WX    TMP DP  RH WIND       PRES   REMARKS
CHADRON        SUNNY     64  34  32 W14       30.06S
ALLIANCE       SUNNY     64  36  35 NW9       30.09S
SCOTTSBLUFF    SUNNY     65  37  35 W9        30.11F
SIDNEY         SUNNY     67  30  25 N13       30.14S

...WESTERN AND NORTH CENTRAL NEBRASKA...

CITY           SKY/WX    TMP DP  RH WIND       PRES   REMARKS
VALENTINE      SUNNY     62  33  33 NW13      30.02R
AINSWORTH      SUNNY     59  33  37 NW12      30.02R
ONEILL         SUNNY     58  32  37 NW12      30.00R
BROKEN BOW     SUNNY     65  34  31 NW21G28   30.02R
IMPERIAL       SUNNY     67  29  24 NW17      30.10R
NORTH PLATTE   SUNNY     67  29  24 NW17G30   30.05S
MCCOOK         SUNNY     71  29  21 NW20G29   30.06R

...EASTERN NEBRASKA...

CITY           SKY/WX    TMP DP  RH WIND       PRES   REMARKS
NORFOLK        SUNNY     58  32  37 NW14      29.97R
SO SIOUX CITY  SUNNY     55  38  52 NW14G25   29.94R
TEKAMAH        SUNNY     57  37  47 NW21      29.95R
COLUMBUS       SUNNY     59  32  36 NW15      30.00R
ALBION         SUNNY     60  30  32 NW15      29.99R
OMAHA EPPLEY   MOSUNNY   57  35  43 NW17      29.94R
OFFUTT AFB     SUNNY     58  35  42 NW15      29.94R
MILLARD        SUNNY     59  35  40 NW13G22   29.95R
LINCOLN        SUNNY     61  31  32 NW16      29.97R
NEBRASKA CITY  SUNNY     59  24  26 N16       29.94R
BEATRICE       SUNNY     63  31  30 N17       29.97R
FALLS CITY     SUNNY     62  31  31 NW13G25   29.93R

...NORTHERN KANSAS...

CITY           SKY/WX    TMP DP  RH WIND       PRES   REMARKS
GOODLAND       SUNNY     68  30  24 NW14      30.14R
HILL CITY      SUNNY     72  29  20 NW20G30   30.04S
NORTON         CLEAR     70  21  16 NW22G28   30.03
PHILLIPSBURG   SUNNY     73  30  20 NW18G25   30.02R
SMITH CENTER   SUNNY     66  32  28 NW14      30.01S
BELOIT         SUNNY     70  32  24 NW15      29.98S
HAYS           SUNNY     72  30  21 NW20      30.03S
RUSSELL        SUNNY     70  31  23 NW20      30.00S
CONCORDIA      SUNNY     67  32  27 NW14      29.98S
SALINA         SUNNY     71  33  24 NW14      29.98S
TOPEKA         SUNNY     65  34  31 N12       29.93S



USA.gov is the U.S. government's official web portal to all federal, state and local government web resources and services.